Flag for Canada Weather past 2 weeks in Mississauga, Ontario, Canada

Now
64 °F

Passing clouds.


Feels Like: 64 °F
Forecast: 40 / 62 °F
Wind: 16 mph from North

Location: Toronto Pearson International Airport

Current Time: Apr 28, 2015 at 3:29:25 PM

Latest Report: Apr 28, 2015 at 2:00 PM


Visibility: 15 mi

Pressure: 29.98 "Hg

Humidity: 40%

Dew point: 39 °F

Location of MississaugaLocation

Historic Weather in Mississauga — Graph

°F

Mississauga temperature yesterday

Maximum temperature yesterday: 54 °F (at 5:00 PM)
Minimum temperature yesterday: 39 °F (at 6:00 AM)
Average temperature yesterday: 46 °F

Past Weeks' High & Low Weather Summary

 TemperatureHumidityPressure
High73 °F (Apr 13, 5:00 PM)100% (Apr 17, 4:00 AM)30.42 "Hg (Apr 17, 4:00 AM)
Low27 °F (Apr 25, 6:00 AM)19% (Apr 14, 3:00 PM)29.36 "Hg (Apr 20, 5:00 PM)
Average46 °F60%29.93 "Hg
* Reported Apr 13 2:00 PM — Apr 28 2:00 PM, Mississauga, Weather by CustomWeather, © 2015

Note: Actual official high and low records may vary slightly from our data, if they occured in-between our weather recording intervals... More about our weather records

Advertising

Mississauga weather history for previous 24 hours

 ConditionsComfort  
Time TempWeatherWind HumidityBarometerVisibility
2:00 PM
Tue, Apr 28
64 °FPassing clouds.16 mph40%29.98 "Hg15 mi
1:00 PM64 °FPassing clouds.14 mph46%30.00 "Hg15 mi
12:00 PM61 °FPassing clouds.12 mph48%30.01 "Hg15 mi
11:00 AM57 °FPassing clouds.10 mph55%30.03 "Hg15 mi
10:00 AM54 °FPassing clouds.12 mph58%30.04 "Hg15 mi
9:00 AM50 °FScattered clouds.12 mph62%30.04 "Hg15 mi
8:00 AM46 °FPartly sunny.10 mph71%30.04 "Hg15 mi
7:00 AM43 °FPassing clouds.10 mph76%30.03 "Hg15 mi
6:00 AM41 °FPassing clouds.9 mph76%30.02 "Hg15 mi
5:00 AM41 °FPassing clouds.10 mph81%30.02 "Hg15 mi
4:00 AM41 °FPassing clouds.14 mph76%30.01 "Hg15 mi
3:00 AM41 °FPassing clouds.13 mph76%30.02 "Hg15 mi
2:00 AM43 °FClear.14 mph76%30.02 "Hg15 mi
1:00 AM43 °FPassing clouds.13 mph76%30.02 "Hg15 mi
12:00 AM45 °FPassing clouds.14 mph66%30.02 "Hg15 mi
11:00 PM
Mon, Apr 27
45 °FPassing clouds.14 mph66%30.01 "Hg15 mi
10:00 PM46 °FPassing clouds.16 mph62%30.00 "Hg15 mi
9:00 PM48 °FBroken clouds.18 mph58%29.98 "Hg15 mi
8:00 PM52 °FBroken clouds.16 mph50%29.97 "Hg15 mi
7:00 PM54 °FBroken clouds.20 mph51%29.94 "Hg15 mi
6:00 PM54 °FPartly sunny.17 mph54%29.93 "Hg15 mi
5:00 PM54 °FPartly sunny.15 mph54%29.92 "Hg15 mi
4:00 PM52 °FBroken clouds.12 mph58%29.91 "Hg15 mi
3:00 PM50 °FBroken clouds.20 mph62%29.92 "Hg15 mi
Weather by CustomWeather, © 2015

See weather overviewHow to use our weather pages